Regional Weather Roundup
Issued by NWS Wakefield, VA

Home | Current Version | Previous Version | Text Only | Print | Product List | Glossary On
Versions: 1 2 3 4 5 6 7 8 9 10 11 12 13 14 15 16 17 18 19 20 21 22 23 24 25 26 27 28 29 30 31 32 33 34 35 36 37 38 39 40 41 42 43 44 45 46 47 48 49 50
000
ASUS41 KAKQ 240510
RWRAKQ

REGIONAL WEATHER ROUNDUP
NATIONAL WEATHER SERVICE WAKEFIELD VA
100 AM EDT WED SEP 24 2014

Note: "fair" indicates few or no clouds below 12,000 feet with no
significant weather and/or obstructions to visibility. * = Denotes
station may not report precipitation (e.g., rain,snow,etc.),
thunder or fog.

VAZ042-051-052>054-056-240600-
NORTHERN VIRGINIA

CITY           SKY/WX    TMP DP  RH WIND       PRES   REMARKS
WASH NATIONAL  MOCLDY    62  50  64 NE3       30.41R
DULLES         MOCLDY    50  46  86 CALM      30.40R
FORT BELVOIR   CLOUDY    52  51  95 CALM      30.40R
QUANTICO       CLOUDY    57  52  83 NW9       30.40S
FREDERICKSBRG* CLOUDY    54  51  87 CALM      30.38R
STAFFORD*      CLOUDY    51  51 100 CALM      30.43S
WARRENTON      CLOUDY    51  51 100 CALM      30.38S
CULPEPER*      MOCLDY    52  48  87 CALM      30.40S
MANASSAS*      MOCLDY    52  52 100 CALM      30.40R
LEESBURG*      PTCLDY    52  50  93 CALM      30.41R
WINCHESTER     PTCLDY    46  43  87 CALM      30.40S
FRONT ROYAL*   CLOUDY    45  45 100 CALM      30.39S
LURAY*         CLOUDY    50  50 100 CALM      30.39S
$$

VAZ048-049-060>072-079>083-240600-
CENTRAL AND SOUTH CENTRAL VIRGINIA...AND NORTH CENTRAL NORTH CAROLINA

CITY           SKY/WX    TMP DP  RH WIND       PRES   REMARKS
RICHMOND       CLOUDY    58  48  69 NE6       30.36S
CHESTERFIELD*  CLOUDY   N/A N/A N/A CALM      30.36F
PETERSBURG*    LGT RAIN  56  49  77 N6        30.34F
HANOVER        CLOUDY    52  49  89 CALM      30.38S
TAPPAHANNOCK*  CLOUDY    52  48  88 CALM      30.38S
CHARLOTTSVILLE CLOUDY    53  49  86 CALM      30.38R
ORANGE*        CLOUDY    54  48  82 CALM      30.40R
LOUISA*        CLOUDY    52  48  87 CALM      30.36S
FARMVILLE*     CLOUDY    54  52  94 N3        30.35R
CREWE*         CLOUDY    55  48  78 CALM      30.35S
FORT PICKETT*  CLOUDY    55  49  79 CALM      30.35S
LUNENBURG*     CLOUDY    56  50  81 N5        30.34S
SOUTH HILL*    CLOUDY    57  52  82 N5        30.38F
LAWRENCEVILLE* CLOUDY    56  49  79 CALM      30.33R
ROANOKE RAPIDS CLOUDY    54  52  94 NE7       30.30F
RALEIGH        LGT RAIN  56  51  84 NE9       30.29F
$$

VAZ088>098-240600-
SOUTHEAST VIRGINIA

CITY           SKY/WX    TMP DP  RH WIND       PRES   REMARKS
NORFOLK        CLOUDY    65  57  75 NE17      30.31S
VIRGINIA BEACH CLOUDY    67  57  70 NE17G23   30.30S
NORFOLK NAVAL  CLOUDY    66  57  72 NE16      30.32F
WEST POINT*    CLOUDY    59  51  73 N3        30.37S
NEWPORT NEWS   CLOUDY    68  56  65 NE10      30.33S
LANGLEY AFB    CLOUDY    64  58  78 NE15      30.31F
FORT EUSTIS    CLOUDY    61  55  80 N5        30.31F
WILLIAMSBURG*  CLOUDY    61  55  82 N3        30.35S
HR EXEC AP*    CLOUDY    63  55  77 NE9G16    30.33S
FRANKLIN*      CLOUDY    57  52  82 N5        30.31F
WAKEFIELD      CLOUDY    57  51  80 VRB3      30.33S
$$

VAZ020-022-025-037-045-240600-
WEST CENTRAL AND SOUTHWEST VIRGINIA

CITY           SKY/WX    TMP DP  RH WIND       PRES   REMARKS
STAUNTON*      CLOUDY    52  43  72 CALM      30.40R
HOT SPRINGS VA CLOUDY    47  27  46 E10       30.40S
LYNCHBURG      CLOUDY    55  50  83 N9        30.37R
DANVILLE       MOCLDY    58  48  69 NE6       30.34R
SOUTH BOSTON*  NOT AVBL
MARTINSVILLE   CLOUDY    54  54 100 N3        30.38R
ROANOKE        CLOUDY    54  51  90 CALM      30.38S
BLACKSBURG     CLOUDY    52  52 100 CALM      30.38S
DUBLIN*        CLOUDY    53  53 100 NE3       30.37F
MARION*        CLOUDY    55  52  90 E8        30.38S
HILLSVILLE*    CLOUDY    50  47  87 NE3       30.36S
RICHLANDS*     CLEAR     58  46  63 E3        30.33S
WISE*          CLEAR     52  52 100 CALM      30.34S
ABINGDON*      PTCLDY    57  52  83 E10       30.32S
$$

MDZ021>025-VAZ099-100-240600-
SOUTHERN MARYLAND AND THE DELMARVA PENINSULA

CITY           SKY/WX    TMP DP  RH WIND       PRES   REMARKS
PATUXENT RIVER CLOUDY    61  52  72 E7        30.38R
BAY BRIDGE APT   N/A     55  48  76 CALM      30.40R
LEONARDTOWN    CLOUDY    52  46  82 CALM      30.39S
DOVER          MOCLDY    50  49  97 N6        30.37R
GEORGETOWN     CLOUDY    54  49  83 CALM      30.39R
EASTON         CLOUDY    53  53 100 CALM      30.43R
CAMBRIDGE      CLOUDY    54  50  87 CALM      30.38R
SALISBURY      CLOUDY    56  50  80 NE3       30.37S
OCEAN CITY     CLOUDY    65  54  67 E13       30.37S
WALLOPS ISLAND CLOUDY    57  52  83 N6        30.37R
ACCOMACK*      CLOUDY    57  50  77 N6        30.35S
$$

NCZ012>017-030>032-240600-
EASTERN NORTH CAROLINA

CITY           SKY/WX    TMP DP  RH WIND       PRES   REMARKS
ELIZABETH CITY CLOUDY    67  59  75 NE15      30.27F
AHOSKIE*       CLOUDY    57  51  81 N7        30.30S
EDENTON*       CLOUDY    61  56  84 N9        30.27S
CURRITUCK*     CLOUDY    68  57  68 NE14G20   30.30R
KILL DEVIL HLS CLOUDY    69  60  74 NE14G25   30.23F
MANTEO         CLOUDY    68  61  77 NE20G28   30.24S
CAPE HATTERAS  RAIN      69  68  96 NE14G25   30.18F FOG
TARBORO*       CLOUDY    58  53  84 N7        30.29S
GOLDSBORO      CLOUDY    59  57  92 N6        30.24F
WASHINGTON     CLOUDY    58  55  89 N10       30.26R
GREENVILLE     CLOUDY    59  54  82 NE10      30.27F
NEW BERN       CLOUDY    62  56  80 N9G18     30.23F
WILMINGTON     RAIN      59  57  93 N12       30.19S
$$

VAZ048-240600-
ELSEWHERE

CITY           SKY/WX    TMP DP  RH WIND       PRES   REMARKS
HARRISBURG PA  PTCLDY    55  50  83 CALM      30.40R
BALTIMORE      MOCLDY    52  49  89 CALM      30.40R
ANNAPOLIS      CLOUDY    61  56  83 CALM      30.40R
ANDREWS AFB    MOCLDY    53  49  85 N3        30.39R
WILMINGTON DE  PTCLDY    54  51  90 N5        30.41R
PHILADELPHIA   MOCLDY    58  52  80 CALM      30.42R
WILDWOOD NJ*   CLOUDY    55  48  76 N5        30.40R
ATLANTIC CITY  MOCLDY    49  47  93 CALM      30.40R
HENDERSON NC   LGT RAIN  55  51  86 NE6       30.33S
GREENSBORO     MOCLDY    54  50  86 N7        30.31S
ROCKY MOUNT    CLOUDY    58  53  84 N10       30.29F
FAYETTEVILLE   CLOUDY    58  54  86 N9        30.25S
CHARLOTTE      CLOUDY    55  49  80 N9        30.31S
$$

VAZ100-240600-
MARINE

STATION/POSITION TIME  TEMP    WIND        PRES    WAVE   SWELL
                       AIR SEA DIR/SP/G            HT/PER HT/PER
                 (UTC) (F)     (DEG/KT/KT) (MB)    (FT/S) (FT/S)
44066 TX TWR #4  0500   65 70   50/ 14/ 16 1029.0S   2/ 8   2/ 8
CAPE MAY NJ      0500   59 73   30/  2/  4 1028.4R
LEWES DE         0500   66 69   80/ 13/ 15 1028.3S
15NM E FENWICK I 0500   66 71              1028.1R   3/ 4
OCEAN-CITY-INLET 0500   65 70   90/  8/ 13 1027.9S
WACHAPREAGUE VA  0500   59 68  360/  6/  9 1027.6R
THOMAS POINT MD  0500   63 71   50/  5/  6 1030.2R
GOOSES REEF MD   0500   64     110/  8/ 12 1029.3R
COVE POINT MD    0500   62     110/  8/  9 1028.7R
SOLOMONS ISLAND  0500      74                N/A
BISHOPS HEAD MD  0500   62 65   40/  8/ 11 1027.9R
PINEY POINT MD   0500           50/  5/  6   N/A
POTOMAC MD       0500   64      80/ 12/ 16 1027.6S
CAMBRIDGE MD     0500   61 71   50/  5/  6 1028.5R
LEWISETTA VA     0500   65 70   80/ 12/ 16 1027.8R
RAPPAHANNOCK LGT 0500           30/ 18/ 20 1028.0R
STINGRAY PT      0500   65      70/ 16/ 21   N/A
YORK RVR RNG VA  0500   66      70/ 19/ 23 1026.6S
YORKTOWN VA      0500   65 74   50/ 13/ 15 1026.7R
JAMESTOWN VA     0500   59     360/  4/  6   N/A
DOMINION TERM VA 0500   65      50/  5/  8 1026.7S
KIPTOPEKE VA     0500      76   20/  5/ 10   N/A
CHES BAY BRIDGE  0500   64 73   20/ 16/ 20 1025.9F
CAPE HENRY VA    0500   67      50/ 21/ 23 1025.2R
CHESAPEAKE LGHT  0400   67      50/ 23/ 25 1026.5R
WILLOUBY STN VA  0500   66      50/ 18/ 20 1025.2S
S CRANEY ISL VA  0500           10/ 16/ 20 1025.9F
CAPE HENRY BUOY  0400      74                N/A     5/ 5
1ST LANDING BUOY 0500   65      20/ 16/ 19 1026.1F
CAPE CHARLES BUO 0400      73                N/A     4/ 5   2/ 8
OFFSHORE WE BUOY 0400      73                N/A     5/ 5   2/ 9
64NM E OF VA BCH 0500   71 75   40/ 21/ 25 1024.3F   6/ 6   2/10
DUCK PIER NC     0500   69 73   40/ 24/ 27 1023.8F
44100 DUCK FRF   0400      74                N/A     6/ 6
44056 DUCK FRF   0400                        N/A     6/ 6
OREGON INLET NC  0500   70 71   30/ 20/ 26 1023.1S
DIAMOND SHLS NC  0500   72      20/ 23/ 29 1020.0F   9/ 8   5/13
CAPE LOOKOUT NC  0400   66      10/ 22/ 27 1021.4F
$$


USA.gov is the U.S. government's official web portal to all federal, state and local government web resources and services.